QPF
0.00 0.00 0.00 0.00 0.00 0.00 0.00 0.00 0.00 0.00 0.00 0.00 0.00 0.00 0.00 0.00 0.00 0.00 0.00 0.00 0.00 0.00 0.00 0.00 0.00 0.00 0.00 0.00 0.00 0.00 0.00 0.00 0.00 0.00 0.00 0.00 0.01 0.00 0.00 0.00 0.00 0.00 0.00 0.01
0.00 0.00 0.00 0.00 0.00 0.00 0.00 0.00 0.00 0.00 0.00 0.00 0.00 0.00 0.00 0.00 0.00 0.00 0.00 0.00 0.00 0.00 0.00 0.00 0.00 0.00 0.00 0.00 0.00 0.00 0.00 0.00 0.00 0.00 0.00 0.00 0.00 0.00 0.00 0.00 0.00 0.00 0.00 0.00
0.00 0.00 0.00 0.00 0.00 0.00 0.00 0.00 0.00 0.00 0.00 0.00 0.00 0.00 0.00 0.00 0.00 0.00 0.00 0.00 0.00 0.00 0.00 0.00 0.00 0.00 0.00 0.00 0.00 0.00 0.00 0.00 0.00 0.00 0.00 0.00 0.00 0.00 0.00 0.00 0.00 0.00 0.00 0.00
0.00 0.00 0.00 0.00 0.00 0.00 0.00 0.00 0.00 0.00 0.00 0.00 0.00 0.00 0.00 0.00 0.00 0.00 0.00 0.00 0.00 0.00 0.00 0.00 0.00 0.00 0.00 0.00 0.00 0.00 0.00 0.00 0.00 0.00 0.00 0.00 0.00 0.00 0.00 0.00 0.00 0.00 0.00 0.00
0.00 0.00 0.00 0.00 0.00 0.00 0.00 0.00 0.00 0.00 0.00 0.00 0.00 0.00 0.00 0.00 0.00 0.00 0.00 0.00 0.00 0.00 0.00 0.00 0.00 0.00 0.00 0.00 0.00 0.00 0.00 0.00 0.00 0.00 0.00 0.00 0.00 0.00 0.00 0.00 0.00 0.00 0.00 0.00
0.00 0.00 0.00 0.00 0.00 0.00 0.00 0.00 0.00 0.00 0.00 0.00 0.00 0.00 0.00 0.00 0.00 0.00 0.00 0.00 0.00 0.00 0.00 0.00 0.00 0.00 0.00 0.00 0.00 0.00 0.00 0.00 0.00 0.00 0.00 0.00 0.00 0.00 0.00 0.00 0.00 0.00 0.00 0.00
0.00 0.00 0.00 0.00 0.00 0.00 0.00 0.00 0.00 0.00 0.00 0.00 0.00 0.00 0.00 0.00 0.00 0.00 0.00 0.00 0.00 0.00 0.00 0.00 0.00 0.00 0.00 0.00 0.00 0.00 0.00 0.00 0.00 0.00 0.00 0.00 0.00 0.00 0.00 0.00 0.00 0.00 0.00 0.00
0.00 0.00 0.00 0.00 0.00 0.00 0.00 0.00 0.00 0.00 0.00 0.00 0.00 0.00 0.00 0.00 0.00 0.00 0.00 0.00 0.00 0.00 0.00 0.00 0.00 0.00 0.00 0.00 0.00 0.00 0.00 0.00 0.00 0.00 0.00 0.00 0.00 0.00 0.00 0.00 0.00 0.00 0.00 0.00
0.00 0.00 0.00 0.00 0.00 0.00 0.00 0.00 0.00 0.00 0.00 0.00 0.00 0.00 0.00 0.00 0.00 0.00 0.00 0.00 0.00 0.00 0.00 0.00 0.00 0.00 0.00 0.00 0.00 0.00 0.00 0.00 0.00 0.00 0.00 0.00 0.00 0.00 0.00 0.00 0.00 0.00 0.00 0.00
0.00 0.00 0.00 0.00 0.00 0.00 0.00 0.00 0.00 0.00 0.00 0.00 0.00 0.00 0.00 0.00 0.00 0.00 0.00 0.00 0.00 0.00 0.00 0.00 0.00 0.00 0.00 0.00 0.00 0.00 0.00 0.00 0.00 0.00 0.00 0.00 0.00 0.00 0.00 0.00 0.00 0.00 0.00 0.00
0.00 0.00 0.00 0.00 0.00 0.00 0.00 0.00 0.00 0.00 0.00 0.00 0.00 0.00 0.00 0.00 0.00 0.00 0.00 0.00 0.00 0.00 0.00 0.00 0.00 0.00 0.00 0.00 0.00 0.00 0.00 0.00 0.01 0.01 0.00 0.00 0.00 0.00 0.00 0.00 0.00 0.00 0.00 0.00
0.00 0.00 0.00 0.00 0.00 0.00 0.00 0.00 0.00 0.00 0.00 0.00 0.00 0.00 0.00 0.00 0.00 0.00 0.00 0.00 0.00 0.00 0.00 0.00 0.00 0.00 0.00 0.00 0.00 0.00 0.00 0.00 0.01 0.04 0.00 0.00 0.00 0.00 0.00 0.00 0.00 0.00 0.00 0.00
0.00 0.00 0.00 0.00 0.00 0.00 0.00 0.00 0.00 0.00 0.00 0.00 0.00 0.00 0.00 0.00 0.00 0.00 0.00 0.00 0.00 0.00 0.00 0.00 0.00 0.00 0.00 0.00 0.00 0.00 0.00 0.00 0.00 0.05 0.02 0.00 0.00 0.00 0.00 0.00 0.00 0.00 0.00 0.00
0.00 0.00 0.00 0.00 0.00 0.00 0.00 0.00 0.00 0.00 0.00 0.00 0.00 0.00 0.00 0.00 0.00 0.00 0.00 0.00 0.00 0.00 0.00 0.00 0.00 0.00 0.00 0.00 0.00 0.00 0.00 0.00 0.00 0.01 0.03 0.00 0.00 0.00 0.00 0.00 0.00 0.00 0.00 0.00
0.00 0.00 0.00 0.00 0.00 0.00 0.00 0.00 0.00 0.00 0.00 0.00 0.00 0.00 0.00 0.00 0.00 0.00 0.00 0.00 0.00 0.00 0.00 0.00 0.00 0.00 0.00 0.00 0.00 0.00 0.00 0.00 0.00 0.00 0.01 0.00 0.00 0.00 0.00 0.00 0.00 0.00 0.00 0.00
0.00 0.00 0.00 0.00 0.00 0.00 0.00 0.00 0.00 0.00 0.00 0.00 0.00 0.00 0.00 0.00 0.00 0.00 0.00 0.00 0.00 0.00 0.00 0.00 0.00 0.00 0.00 0.00 0.00 0.00 0.00 0.00 0.00 0.01 0.01 0.00 0.00 0.00 0.00 0.00 0.00 0.00 0.00 0.00
0.00 0.00 0.00 0.00 0.00 0.00 0.00 0.00 0.00 0.00 0.00 0.00 0.00 0.00 0.00 0.00 0.00 0.00 0.00 0.00 0.00 0.00 0.00 0.00 0.00 0.00 0.00 0.00 0.00 0.00 0.00 0.00 0.00 0.00 0.01 0.00 0.00 0.00 0.00 0.00 0.00 0.00 0.00 0.00
0.00 0.00 0.00 0.00 0.00 0.00 0.00 0.00 0.00 0.00 0.00 0.00 0.00 0.00 0.00 0.00 0.00 0.00 0.00 0.00 0.00 0.00 0.00 0.00 0.00 0.00 0.00 0.00 0.00 0.00 0.00 0.00 0.00 0.00 0.00 0.00 0.00 0.00 0.00 0.00 0.00 0.00 0.00 0.00
0.00 0.00 0.00 0.00 0.00 0.00 0.00 0.00 0.00 0.00 0.00 0.00 0.00 0.00 0.00 0.00 0.00 0.00 0.00 0.00 0.00 0.00 0.00 0.00 0.00 0.00 0.00 0.00 0.00 0.00 0.00 0.00 0.00 0.00 0.00 0.00 0.00 0.00 0.00 0.00 0.00 0.00 0.00 0.00
0.00 0.00 0.00 0.00 0.00 0.00 0.00 0.00 0.00 0.00 0.00 0.00 0.00 0.00 0.02 0.03 0.02 0.04 0.01 0.00 0.00 0.00 0.00 0.00 0.01 0.00 0.00 0.00 0.00 0.00 0.00 0.00 0.00 0.01 0.01 0.00 0.00 0.00 0.00 0.01 0.01 0.01 0.00 0.00
0.00 0.00 0.00 0.00 0.00 0.00 0.00 0.00 0.00 0.00 0.00 0.01 0.00 0.00 0.00 0.00 0.00 0.00 0.00 0.00 0.01 0.01 0.00 0.00 0.02 0.03 0.03 0.04 0.01 0.00 0.00 0.01 0.06 0.03 0.00 0.00 0.00 0.00 0.00 0.01 0.04 0.05 0.03 0.01
0.00 0.00 0.00 0.00 0.00 0.00 0.00 0.00 0.00 0.00 0.00 0.00 0.00 0.00 0.00 0.00 0.00 0.00 0.00 0.01 0.00 0.00 0.02 0.03 0.02 0.03 0.04 0.08 0.08 0.12 0.03 0.05 0.08 0.04 0.03 0.02 0.02 0.01 0.01 0.01 0.02 0.01 0.00 0.01
0.00 0.00 0.00 0.00 0.00 0.00 0.00 0.00 0.00 0.00 0.00 0.00 0.00 0.00 0.00 0.01 0.01 0.02 0.03 0.03 0.02 0.02 0.01 0.01 0.01 0.01 0.01 0.01 0.03 0.08 0.08 0.06 0.05 0.03 0.05 0.06 0.11 0.14 0.13 0.03 0.03 0.01 0.01 0.03
0.00 0.00 0.00 0.00 0.00 0.00 0.00 0.00 0.00 0.00 0.00 0.00 0.00 0.00 0.00 0.00 0.00 0.01 0.01 0.01 0.01 0.00 0.00 0.00 0.00 0.00 0.00 0.00 0.00 0.00 0.01 0.00 0.00 0.00 0.00 0.00 0.02 0.16 0.27 0.29 0.24 0.27 0.22 0.14
0.00 0.00 0.00 0.00 0.00 0.00 0.00 0.00 0.00 0.00 0.00 0.00 0.00 0.00 0.00 0.00 0.00 0.00 0.01 0.01 0.01 0.00 0.00 0.00 0.00 0.00 0.00 0.00 0.00 0.00 0.00 0.00 0.00 0.00 0.00 0.01 0.08 0.23 0.30 0.44 0.54 0.43 0.38 0.23
0.00 0.00 0.00 0.00 0.00 0.00 0.00 0.00 0.00 0.00 0.00 0.00 0.00 0.00 0.00 0.00 0.00 0.00 0.00 0.00 0.00 0.00 0.00 0.00 0.00 0.00 0.00 0.00 0.00 0.00 0.00 0.00 0.00 0.00 0.00 0.00 0.03 0.09 0.08 0.14 0.16 0.20 0.20 0.18
MSLP
1010.67 1011.44 1011.63 1011.74 1012.12 1012.06 1012.04 1011.85 1011.31 1009.62 1009.17 1009.17 1008.28 1008.25 1007.50 1008.06 1008.67 1009.05 1009.29 1009.75 1009.95 1009.98 1010.35 1011.06 1011.50 1012.06 1012.83 1013.53 1014.27 1014.84 1015.41 1016.01 1016.47 1017.00 1017.48 1017.77 1017.86 1017.99 1018.17 1018.09 1018.34 1018.46 1018.48 1018.57
1011.27 1011.12 1011.22 1011.48 1011.77 1011.99 1012.03 1011.92 1011.11 1009.69 1008.98 1009.45 1008.49 1008.28 1007.68 1007.81 1007.62 1007.71 1008.06 1008.70 1009.01 1009.52 1010.06 1010.55 1011.01 1011.63 1012.25 1012.93 1013.74 1014.45 1014.90 1015.48 1015.94 1016.23 1016.74 1017.13 1017.28 1017.44 1017.60 1017.72 1017.91 1018.08 1018.18 1018.30
1011.22 1010.84 1010.61 1011.25 1011.52 1011.80 1011.83 1011.75 1010.99 1010.84 1009.63 1008.89 1009.01 1008.78 1007.61 1006.69 1006.50 1006.48 1006.72 1007.01 1007.74 1008.41 1009.16 1009.88 1010.47 1010.96 1011.74 1012.44 1013.08 1013.78 1014.38 1014.97 1015.40 1015.85 1016.44 1016.93 1017.27 1017.34 1017.61 1017.66 1017.73 1017.68 1017.76 1017.91
1011.01 1010.29 1010.47 1010.79 1011.06 1011.47 1011.40 1010.46 1010.69 1010.77 1010.95 1010.33 1009.69 1009.43 1008.00 1006.62 1006.14 1006.00 1006.19 1006.51 1006.81 1007.60 1008.43 1009.13 1009.68 1010.43 1010.93 1011.55 1012.42 1013.09 1013.83 1014.50 1015.09 1015.55 1016.08 1016.44 1016.72 1017.07 1017.06 1017.11 1017.18 1017.25 1017.35 1017.66
1010.29 1010.06 1010.11 1010.31 1010.24 1010.46 1010.24 1010.20 1010.57 1010.70 1011.06 1011.00 1010.52 1010.33 1007.54 1006.92 1006.20 1005.45 1005.38 1005.75 1006.00 1006.57 1007.34 1007.98 1008.48 1009.16 1010.07 1011.11 1011.77 1012.48 1013.32 1014.05 1014.64 1015.26 1015.66 1015.98 1016.29 1016.47 1016.57 1016.82 1017.07 1017.20 1017.26 1017.43
1009.92 1009.48 1009.40 1009.07 1009.25 1009.59 1009.61 1010.24 1010.83 1011.45 1011.79 1012.20 1011.06 1010.66 1007.93 1006.83 1005.41 1004.81 1004.45 1004.70 1005.17 1005.92 1006.56 1007.04 1007.95 1009.02 1009.77 1010.53 1011.40 1012.18 1012.87 1013.50 1014.14 1014.74 1015.25 1015.55 1015.91 1016.23 1016.49 1016.76 1016.91 1017.12 1017.21 1017.43
1009.94 1008.97 1008.42 1008.34 1008.78 1009.25 1009.87 1011.12 1012.05 1012.72 1013.08 1012.67 1011.59 1010.79 1007.81 1005.53 1004.68 1004.40 1004.01 1003.95 1004.30 1005.01 1005.86 1006.68 1007.44 1008.17 1009.13 1009.84 1010.59 1011.48 1012.27 1012.99 1013.63 1014.26 1014.76 1015.12 1015.50 1015.89 1016.13 1016.41 1016.66 1016.96 1017.26 1017.37
1010.32 1008.87 1007.96 1007.57 1007.93 1008.44 1009.56 1010.59 1012.00 1012.96 1013.80 1012.99 1011.66 1009.99 1006.71 1004.88 1004.15 1003.46 1003.23 1003.42 1003.90 1004.66 1005.15 1005.79 1006.44 1007.38 1008.15 1009.06 1009.96 1010.80 1011.56 1012.36 1013.01 1013.57 1014.13 1014.61 1015.01 1015.47 1015.76 1016.01 1016.30 1016.61 1016.91 1017.01
1010.00 1009.01 1007.44 1007.13 1007.04 1007.58 1009.06 1010.09 1010.57 1012.28 1013.63 1013.42 1011.44 1009.24 1006.19 1004.61 1004.00 1003.45 1003.21 1003.27 1003.76 1004.18 1004.60 1005.03 1005.93 1006.61 1007.39 1008.28 1008.99 1009.77 1010.80 1011.63 1012.29 1012.79 1013.54 1014.12 1014.51 1014.94 1015.32 1015.67 1016.00 1016.32 1016.50 1016.68
1009.45 1009.22 1007.49 1006.84 1006.73 1007.21 1007.80 1008.81 1010.48 1012.03 1013.16 1013.25 1011.48 1009.79 1007.71 1005.50 1004.69 1003.96 1003.57 1003.43 1003.60 1003.84 1004.28 1004.78 1005.40 1006.00 1006.70 1007.31 1008.29 1009.30 1010.02 1010.54 1011.25 1012.14 1012.74 1013.32 1013.86 1014.38 1014.84 1015.26 1015.61 1015.90 1016.17 1016.41
1008.91 1009.37 1007.70 1007.25 1006.95 1007.16 1008.11 1008.69 1010.12 1011.42 1012.12 1012.40 1011.57 1009.42 1006.46 1005.56 1004.85 1004.16 1003.75 1003.27 1003.37 1003.73 1004.04 1004.28 1004.82 1005.51 1006.27 1007.07 1007.85 1008.65 1009.44 1010.19 1010.92 1011.59 1012.17 1012.82 1013.36 1013.81 1014.31 1014.71 1015.07 1015.42 1015.77 1016.04
1009.01 1009.54 1009.13 1007.70 1006.72 1006.59 1006.92 1007.76 1008.84 1010.53 1011.92 1012.08 1011.14 1007.93 1005.75 1005.25 1004.55 1004.11 1003.45 1003.22 1002.84 1002.96 1003.47 1004.00 1004.66 1005.24 1006.01 1006.67 1007.32 1007.95 1008.80 1009.44 1010.00 1010.66 1011.45 1012.06 1012.81 1013.36 1013.79 1014.13 1014.52 1014.90 1015.27 1015.58
1009.21 1009.75 1009.58 1008.11 1007.23 1006.55 1006.63 1007.18 1008.03 1009.06 1010.04 1010.84 1010.44 1007.54 1005.43 1004.92 1004.39 1004.22 1004.13 1003.55 1003.06 1003.09 1003.59 1004.02 1004.53 1005.11 1005.66 1006.22 1006.74 1007.27 1007.93 1008.66 1009.53 1010.13 1010.83 1011.59 1012.19 1012.71 1013.12 1013.49 1013.92 1014.33 1014.73 1015.07
1009.30 1010.11 1009.99 1009.21 1007.93 1007.27 1006.77 1006.58 1007.28 1007.96 1009.31 1009.60 1008.75 1007.15 1005.96 1005.17 1004.85 1004.31 1004.00 1003.96 1003.91 1003.62 1003.56 1004.10 1004.55 1004.82 1005.19 1005.65 1006.20 1006.87 1007.52 1008.30 1009.08 1009.88 1010.53 1011.00 1011.42 1011.89 1012.41 1012.91 1013.36 1013.76 1014.13 1014.51
1010.19 1010.52 1010.21 1009.28 1008.37 1007.56 1006.80 1006.40 1006.55 1007.27 1007.20 1007.42 1006.98 1007.03 1005.72 1005.16 1004.87 1004.64 1004.44 1004.19 1003.95 1004.15 1004.25 1003.91 1004.24 1004.72 1005.06 1005.40 1005.91 1006.44 1007.01 1007.60 1008.24 1009.00 1009.87 1010.27 1010.64 1011.19 1011.81 1012.32 1012.79 1013.20 1013.59 1013.87
1010.97 1011.04 1010.88 1009.90 1008.60 1007.78 1007.07 1006.25 1006.21 1006.29 1006.33 1006.65 1006.68 1006.44 1004.93 1004.77 1004.88 1004.96 1004.89 1004.52 1004.43 1004.59 1004.95 1004.61 1004.79 1004.96 1004.98 1005.15 1005.48 1006.02 1006.52 1007.18 1007.91 1008.49 1008.92 1009.65 1010.29 1010.74 1011.18 1011.72 1012.22 1012.69 1013.02 1013.33
1011.77 1011.76 1011.80 1011.00 1009.60 1008.39 1007.40 1006.56 1006.22 1005.91 1006.14 1006.22 1006.52 1005.91 1005.74 1005.98 1006.04 1005.88 1005.75 1005.24 1005.28 1005.25 1004.96 1004.90 1004.92 1005.04 1004.96 1005.24 1005.48 1005.44 1005.99 1006.79 1007.30 1007.83 1008.47 1008.96 1009.57 1010.18 1010.62 1011.12 1011.69 1012.10 1012.44 1012.81
1012.10 1012.32 1012.23 1011.87 1010.64 1009.27 1007.36 1006.41 1006.06 1006.39 1006.57 1006.66 1006.48 1006.28 1006.18 1006.38 1006.50 1006.41 1006.09 1005.83 1005.91 1005.56 1005.34 1005.18 1004.94 1004.74 1004.56 1004.63 1004.93 1005.45 1005.94 1006.44 1007.03 1007.27 1007.76 1008.23 1008.76 1009.39 1010.01 1010.51 1010.84 1011.23 1011.66 1011.93
1012.40 1012.83 1012.94 1012.24 1011.12 1009.61 1007.90 1006.87 1006.65 1006.57 1007.32 1007.52 1007.14 1006.84 1006.80 1006.69 1006.56 1006.76 1006.59 1006.45 1006.28 1006.49 1005.99 1005.55 1005.12 1004.76 1004.49 1004.51 1004.66 1005.17 1005.65 1006.07 1006.67 1007.06 1007.18 1007.65 1008.02 1008.52 1009.20 1009.69 1010.07 1010.42 1010.95 1011.31
1012.83 1013.04 1013.28 1013.12 1011.86 1010.43 1008.93 1007.89 1007.57 1007.11 1007.55 1007.85 1007.75 1007.55 1007.38 1007.74 1007.92 1007.82 1007.54 1007.04 1006.66 1006.34 1006.24 1005.82 1005.24 1005.34 1004.64 1004.91 1004.66 1004.97 1005.47 1005.69 1006.12 1006.49 1006.76 1007.08 1007.54 1007.87 1008.02 1008.47 1009.18 1009.62 1010.02 1010.38
1013.92 1013.94 1013.83 1013.32 1012.30 1010.83 1009.74 1008.81 1008.22 1008.53 1009.16 1008.43 1008.26 1008.25 1008.08 1008.31 1008.70 1008.75 1008.31 1008.35 1007.64 1006.71 1006.30 1006.22 1005.55 1006.15 1006.16 1005.45 1005.15 1005.30 1005.26 1005.51 1005.85 1006.02 1006.44 1006.69 1006.81 1007.16 1007.53 1008.01 1008.58 1008.97 1009.44 1010.00
1014.62 1014.60 1014.38 1013.73 1012.81 1011.77 1010.31 1009.32 1009.56 1009.82 1009.30 1009.05 1008.74 1008.53 1008.54 1008.63 1008.33 1007.88 1008.00 1008.32 1008.26 1007.82 1006.81 1006.18 1005.87 1006.58 1007.22 1006.32 1005.86 1005.80 1005.29 1005.26 1005.70 1005.70 1006.04 1006.38 1006.66 1006.91 1007.18 1007.55 1008.20 1008.62 1009.11 1009.58
1014.83 1014.45 1014.44 1014.12 1012.94 1012.03 1011.36 1010.95 1010.53 1010.22 1010.00 1009.57 1009.32 1008.98 1008.96 1008.84 1008.31 1007.73 1008.05 1007.71 1008.01 1007.95 1008.00 1006.92 1006.65 1006.84 1007.25 1006.83 1005.66 1006.54 1006.54 1006.04 1005.79 1006.21 1005.90 1006.06 1006.76 1006.56 1006.81 1007.23 1007.72 1008.42 1008.74 1009.20
1014.73 1014.40 1014.50 1014.03 1012.83 1012.17 1011.61 1011.07 1010.71 1010.54 1010.54 1010.01 1009.59 1009.30 1009.05 1009.01 1008.80 1008.66 1008.44 1008.37 1007.99 1007.53 1007.75 1007.02 1006.58 1006.84 1007.08 1006.88 1006.68 1007.07 1006.69 1006.82 1006.50 1006.02 1006.14 1006.46 1006.87 1007.04 1007.23 1007.32 1007.14 1007.75 1008.29 1008.90
1015.33 1014.79 1014.42 1013.91 1013.00 1012.27 1011.52 1011.26 1011.03 1010.68 1010.49 1010.20 1009.90 1009.60 1009.27 1009.18 1008.80 1008.65 1008.43 1008.32 1008.16 1007.74 1007.14 1006.99 1006.71 1006.14 1006.25 1006.35 1006.29 1006.08 1006.53 1006.51 1006.08 1006.27 1006.68 1006.98 1007.15 1007.36 1007.57 1007.74 1008.23 1009.21 1008.93 1008.98
1014.94 1014.46 1014.45 1013.82 1012.98 1012.90 1012.22 1011.46 1011.31 1011.20 1010.65 1010.28 1010.11 1009.58 1009.29 1009.15 1008.86 1008.56 1008.27 1007.92 1007.99 1007.83 1007.40 1006.98 1006.60 1006.50 1006.00 1006.03 1005.74 1005.31 1005.30 1006.90 1006.55 1006.29 1006.79 1007.50 1007.44 1007.62 1007.63 1007.86 1008.27 1007.66 1005.17 1009.47
Thickness
5782 5763 5752 5761 5762 5765 5761 5755 5752 5775 5788 5786 5782 5785 5804 5802 5800 5795 5794 5792 5790 5791 5793 5792 5787 5785 5780 5776 5770 5767 5762 5759 5758 5754 5752 5752 5753 5754 5753 5754 5756 5757 5759 5761
5764 5753 5768 5773 5767 5762 5757 5752 5753 5775 5789 5779 5783 5784 5800 5803 5805 5808 5803 5798 5798 5794 5791 5791 5790 5787 5783 5779 5774 5769 5767 5763 5761 5761 5758 5757 5757 5756 5754 5756 5758 5760 5761 5762
5752 5767 5778 5770 5765 5758 5754 5749 5753 5757 5775 5788 5787 5774 5793 5812 5815 5817 5818 5818 5813 5804 5797 5794 5791 5791 5787 5781 5778 5773 5770 5767 5765 5763 5759 5756 5755 5754 5752 5753 5757 5761 5763 5765
5759 5774 5772 5766 5760 5756 5743 5769 5767 5763 5759 5741 5779 5735 5776 5801 5806 5815 5816 5816 5816 5811 5806 5802 5798 5792 5792 5789 5784 5779 5774 5770 5768 5765 5761 5758 5755 5753 5756 5754 5759 5764 5765 5765
5754 5767 5764 5759 5761 5766 5760 5774 5770 5769 5753 5756 5759 5743 5777 5797 5801 5813 5819 5819 5822 5820 5814 5809 5808 5804 5799 5794 5789 5784 5778 5772 5769 5766 5764 5762 5759 5760 5762 5763 5764 5765 5766 5765
5761 5779 5773 5773 5776 5776 5782 5772 5759 5746 5739 5724 5753 5749 5765 5790 5809 5827 5829 5829 5828 5825 5821 5818 5814 5806 5801 5798 5791 5786 5781 5776 5772 5769 5766 5764 5762 5761 5761 5762 5763 5764 5764 5764
5750 5764 5779 5785 5769 5775 5765 5740 5711 5720 5712 5718 5742 5742 5769 5812 5821 5825 5832 5834 5837 5833 5826 5819 5814 5810 5804 5801 5797 5790 5785 5779 5776 5771 5768 5767 5765 5763 5763 5764 5764 5763 5762 5762
5726 5732 5766 5783 5774 5764 5753 5747 5715 5712 5706 5718 5742 5741 5781 5820 5829 5838 5843 5844 5842 5836 5832 5827 5823 5817 5813 5807 5802 5795 5788 5783 5780 5776 5772 5770 5768 5765 5764 5765 5764 5763 5762 5763
5722 5733 5781 5784 5788 5783 5760 5742 5758 5715 5709 5708 5728 5758 5802 5822 5826 5833 5839 5843 5839 5840 5838 5835 5829 5825 5819 5812 5808 5802 5794 5788 5784 5782 5776 5771 5769 5766 5764 5763 5763 5762 5762 5763
5750 5730 5771 5785 5792 5786 5775 5772 5740 5718 5715 5712 5719 5735 5751 5797 5808 5821 5833 5837 5839 5842 5841 5838 5833 5830 5825 5821 5813 5806 5800 5795 5791 5785 5781 5777 5773 5769 5766 5764 5762 5761 5761 5760
5755 5744 5764 5778 5771 5761 5759 5752 5738 5729 5717 5705 5705 5731 5779 5796 5808 5816 5825 5836 5839 5840 5842 5840 5838 5834 5830 5823 5816 5809 5803 5797 5791 5787 5783 5779 5775 5772 5768 5765 5764 5762 5761 5760
5756 5732 5728 5749 5779 5783 5775 5762 5751 5727 5723 5704 5706 5737 5801 5801 5807 5814 5824 5834 5841 5846 5844 5842 5839 5835 5830 5824 5818 5812 5807 5801 5798 5793 5787 5783 5777 5773 5770 5768 5766 5765 5762 5761
5749 5724 5711 5738 5758 5775 5770 5761 5752 5738 5727 5711 5713 5738 5799 5800 5808 5810 5811 5825 5836 5840 5840 5839 5838 5834 5830 5825 5820 5815 5812 5808 5801 5796 5790 5784 5780 5775 5773 5771 5769 5766 5764 5762
5744 5714 5716 5712 5740 5754 5756 5764 5753 5748 5719 5721 5727 5759 5780 5791 5797 5807 5814 5818 5821 5829 5834 5834 5832 5832 5832 5828 5823 5817 5814 5810 5804 5796 5791 5786 5783 5780 5776 5774 5772 5770 5767 5764
5724 5710 5716 5722 5734 5745 5754 5763 5756 5746 5750 5745 5755 5749 5777 5790 5795 5802 5808 5813 5820 5820 5821 5830 5832 5831 5829 5827 5824 5820 5817 5813 5809 5802 5794 5790 5787 5783 5779 5775 5773 5771 5769 5767
5705 5697 5701 5710 5728 5731 5734 5752 5754 5754 5754 5746 5754 5752 5783 5794 5793 5796 5796 5808 5812 5813 5813 5820 5824 5825 5826 5826 5823 5820 5816 5812 5808 5802 5798 5793 5786 5783 5780 5777 5774 5771 5769 5768
5690 5681 5679 5677 5703 5711 5709 5729 5740 5752 5755 5754 5736 5762 5773 5772 5774 5778 5784 5794 5796 5801 5807 5810 5814 5815 5820 5819 5819 5818 5817 5812 5807 5802 5798 5795 5790 5784 5781 5779 5774 5771 5769 5768
5676 5670 5664 5659 5682 5665 5710 5732 5737 5736 5737 5737 5745 5755 5760 5759 5764 5770 5778 5781 5784 5791 5796 5801 5806 5811 5814 5819 5818 5815 5812 5808 5802 5801 5797 5795 5792 5786 5782 5778 5775 5773 5771 5770
5660 5655 5652 5649 5651 5677 5704 5717 5718 5722 5721 5724 5729 5743 5750 5756 5759 5758 5767 5771 5774 5776 5784 5792 5798 5803 5809 5810 5812 5810 5807 5804 5799 5793 5794 5791 5790 5787 5783 5779 5775 5774 5771 5769
5646 5643 5643 5634 5642 5644 5681 5700 5707 5714 5693 5713 5718 5724 5728 5726 5719 5727 5743 5754 5760 5767 5771 5779 5788 5793 5798 5798 5802 5800 5797 5798 5796 5791 5790 5789 5786 5785 5786 5784 5778 5776 5775 5772
5617 5618 5623 5620 5628 5643 5667 5682 5693 5672 5671 5697 5704 5706 5711 5708 5708 5712 5721 5726 5736 5750 5758 5763 5769 5767 5770 5780 5786 5785 5787 5788 5789 5792 5788 5787 5786 5785 5783 5780 5778 5775 5772 5769
5607 5603 5603 5607 5616 5624 5656 5665 5660 5662 5675 5683 5692 5697 5697 5697 5703 5709 5710 5709 5715 5724 5740 5749 5751 5747 5744 5760 5764 5768 5772 5782 5782 5783 5783 5781 5779 5778 5778 5777 5773 5770 5768 5765
5598 5603 5600 5606 5611 5629 5639 5642 5649 5653 5657 5666 5672 5679 5680 5682 5690 5698 5697 5704 5705 5708 5712 5729 5730 5729 5725 5737 5752 5745 5753 5761 5764 5766 5774 5775 5770 5775 5773 5770 5767 5762 5762 5760
5597 5599 5595 5604 5617 5622 5626 5633 5639 5642 5643 5651 5658 5661 5667 5666 5670 5674 5679 5684 5691 5697 5700 5712 5721 5720 5722 5726 5732 5727 5741 5742 5750 5759 5761 5761 5757 5758 5756 5757 5747 5753 5756 5753
5585 5590 5589 5590 5604 5610 5621 5622 5624 5628 5631 5635 5639 5646 5650 5653 5657 5660 5665 5668 5671 5678 5689 5694 5699 5711 5716 5718 5719 5725 5727 5732 5740 5742 5743 5743 5745 5745 5743 5741 5737 5732 5729 5736
5581 5583 5579 5587 5597 5594 5604 5611 5612 5614 5620 5623 5625 5631 5636 5641 5644 5649 5653 5659 5659 5662 5670 5677 5685 5689 5698 5703 5710 5716 5719 5711 5721 5729 5729 5725 5731 5731 5734 5735 5734 5738 5743 5709